Las Cruces, NM

12:18 PM MDT on May 24, 2017 (GMT -0600)
Las Cruces International

Weather History for KLRU - August, 2013

Change the Weather History Date:

Monday, August 19, 2013

  Actual Average Record
Temperature  
Mean Temperature 81 °F -  
Max Temperature 96 °F 89 °F 100 °F (2007)
Min Temperature 66 °F 67 °F 60 °F (2001)
Cooling Degree Days 16    
Growing Degree Days 31 (Base 50)    
Moisture  
Dew Point 54 °F    
Average Humidity 44    
Maximum Humidity 67    
Minimum Humidity 19    
Precipitation  
Precipitation 0.06 in - - ()
Sea Level Pressure  
Sea Level Pressure 30.13 in    
Wind  
Wind Speed 4 mph (SW)    
Max Wind Speed 14 mph    
Max Gust Speed 22 mph    
Visibility 10 miles    
Events Rain , Thunderstorm    
Averages and records for this station are not official NWS values.
T = Trace of Precipitation, MM = Missing Value Source: NWS Daily Summary

Daily Weather History Graph

Daily Weather History Graph

Search for Another Location

Airport or City:

Trip Planner

Search our weather history database for the weather conditions in past years. The results will help you decide how hot, cold, wet, or windy it might be!

Date:

Astronomy

Aug. 19, 2013 Rise Set
Actual Time 6:34 AM MDT 7:47 PM MDT
Civil Twilight 6:09 AM MDT 8:12 PM MDT
Nautical Twilight 5:38 AM MDT 8:43 PM MDT
Astronomical Twilight 5:06 AM MDT 9:14 PM MDT
Moon 6:40 PM MDT (8/19) 4:59 AM MDT (8/19)
Length of Visible Light 14h 03m
Length of Day
13h 12m
Waxing Gibbous, 97% of the Moon is Illuminated
Aug 19
Waxing Gibbous
Aug 20
Full
Aug 28
Last Quarter
Sep 5
New
Sep 12
First Quarter

Hourly Weather History & Observations

Time (MDT) Temp. Heat Index Dew Point Humidity Pressure Visibility Wind Dir Wind Speed Gust Speed Precip Events Conditions
12:15 AM 75.4 °F - 51.8 °F 44% 30.15 in 10.0 mi NW 4.6 mph - N/A   Clear
12:35 AM 74.3 °F - 52.7 °F 47% 30.15 in 10.0 mi NW 4.6 mph - N/A   Clear
12:55 AM 75.4 °F - 51.4 °F 43% 30.14 in 10.0 mi ENE 5.8 mph - N/A   Clear
1:15 AM 73.6 °F - 53.2 °F 49% 30.15 in 10.0 mi Calm Calm - N/A   Clear
1:35 AM 72.7 °F - 53.2 °F 50% 30.16 in 10.0 mi South 8.1 mph - N/A   Clear
1:55 AM 73.2 °F - 52.3 °F 48% 30.15 in 10.0 mi SSW 4.6 mph - N/A   Clear
2:15 AM 73.4 °F - 52.3 °F 48% 30.14 in 10.0 mi SW 4.6 mph - N/A   Clear
2:35 AM 71.6 °F - 53.2 °F 52% 30.13 in 10.0 mi West 3.5 mph - N/A   Clear
2:55 AM 70.3 °F - 53.1 °F 54% 30.13 in 10.0 mi West 4.6 mph - N/A   Clear
3:15 AM 70.5 °F - 52.7 °F 53% 30.14 in 10.0 mi East 4.6 mph - N/A   Clear
3:35 AM 71.1 °F - 52.5 °F 52% 30.13 in 10.0 mi Calm Calm - N/A   Clear
3:55 AM 70.2 °F - 52.9 °F 54% 30.12 in 10.0 mi Calm Calm - N/A   Clear
4:15 AM 68.9 °F - 53.6 °F 58% 30.12 in 10.0 mi Calm Calm - N/A   Clear
4:35 AM 69.1 °F - 53.1 °F 57% 30.12 in 10.0 mi East 5.8 mph - N/A   Clear
4:55 AM 68.5 °F - 53.6 °F 59% 30.12 in 10.0 mi Calm Calm - N/A   Clear
5:15 AM 68.4 °F - 54.1 °F 60% 30.12 in 10.0 mi Calm Calm - N/A   Clear
5:35 AM 71.2 °F - 53.1 °F 53% 30.13 in 10.0 mi Calm Calm - N/A   Clear
5:55 AM 71.2 °F - 53.4 °F 53% 30.13 in 10.0 mi SSE 3.5 mph - N/A   Clear
6:15 AM 67.1 °F - 54.7 °F 64% 30.13 in 10.0 mi Calm Calm - N/A   Clear
6:35 AM 67.3 °F - 55.0 °F 65% 30.14 in 10.0 mi Calm Calm - N/A   Clear
6:55 AM 66.7 °F - 55.4 °F 67% 30.16 in 10.0 mi NW 3.5 mph - N/A   Clear
7:15 AM 67.8 °F - 55.8 °F 65% 30.16 in 10.0 mi Calm Calm - N/A   Clear
7:35 AM 70.0 °F - 57.0 °F 63% 30.16 in 10.0 mi WNW 3.5 mph - N/A   Clear
7:55 AM 72.9 °F - 57.7 °F 59% 30.17 in 10.0 mi Calm Calm - N/A   Clear
8:15 AM 75.9 °F - 57.4 °F 52% 30.18 in 10.0 mi WNW 4.6 mph - N/A   Clear
8:35 AM 77.0 °F - 54.5 °F 46% 30.18 in 10.0 mi Calm Calm - N/A   Clear
8:55 AM 78.3 °F - 54.0 °F 43% 30.18 in 10.0 mi Calm Calm - N/A   Clear
9:15 AM 80.4 °F 80.1 °F 53.4 °F 39% 30.18 in 10.0 mi Calm Calm - N/A   Clear
9:35 AM 81.3 °F - 52.3 °F 37% 30.18 in 10.0 mi East 3.5 mph - N/A   Clear
9:55 AM 82.0 °F 81.5 °F 55.4 °F 40% 30.18 in 10.0 mi ENE 4.6 mph - N/A   Clear
10:15 AM 82.8 °F 81.9 °F 54.9 °F 38% 30.19 in 10.0 mi Calm Calm - N/A   Clear
10:35 AM 82.9 °F 81.9 °F 54.3 °F 37% 30.18 in 10.0 mi Calm Calm - N/A   Clear
10:55 AM 85.1 °F 83.6 °F 54.3 °F 35% 30.18 in 10.0 mi East 5.8 mph - N/A   Clear
11:15 AM 86.2 °F 84.4 °F 54.0 °F 33% 30.18 in 10.0 mi SSW 3.5 mph - N/A   Clear
11:35 AM 87.1 °F - 51.4 °F 29% 30.17 in 10.0 mi SSW 4.6 mph - N/A   Clear
11:55 AM 88.0 °F - 50.0 °F 27% 30.16 in 10.0 mi Calm Calm - N/A   Clear
12:15 PM 88.7 °F - 49.6 °F 26% 30.16 in 10.0 mi SE 4.6 mph - N/A   Clear
12:35 PM 90.1 °F - 49.1 °F 24% 30.15 in 10.0 mi Calm Calm - N/A   Clear
12:55 PM 90.3 °F - 48.7 °F 24% 30.14 in 10.0 mi WSW 4.6 mph - N/A   Clear
1:15 PM 91.8 °F - 48.4 °F 23% 30.14 in 10.0 mi ESE 3.5 mph - N/A   Clear
1:35 PM 91.9 °F - 47.5 °F 22% 30.12 in 10.0 mi West 3.5 mph - N/A   Clear
1:55 PM 92.3 °F - 47.3 °F 21% 30.12 in 10.0 mi Calm Calm - N/A   Clear
2:15 PM 92.5 °F - 46.9 °F 21% 30.11 in 10.0 mi Calm Calm - N/A   Clear
2:35 PM 93.6 °F - 46.4 °F 20% 30.10 in 10.0 mi Calm Calm - N/A   Clear
2:55 PM 94.3 °F - 47.1 °F 20% 30.09 in 10.0 mi WSW 4.6 mph - N/A   Clear
3:15 PM 94.8 °F - 45.9 °F 19% 30.08 in 10.0 mi WNW 4.6 mph - N/A   Clear
3:35 PM 94.5 °F - 46.2 °F 19% 30.07 in 10.0 mi SW 4.6 mph - N/A   Scattered Clouds
3:55 PM 96.4 °F - 48.0 °F 19% 30.06 in 10.0 mi SW 9.2 mph - N/A   Scattered Clouds
4:15 PM 95.4 °F - 48.4 °F 20% 30.06 in 10.0 mi West 9.2 mph - N/A   Mostly Cloudy
4:35 PM 93.2 °F - 46.9 °F 20% 30.06 in 10.0 mi SW 6.9 mph - N/A Thunderstorm Mostly Cloudy
4:55 PM 88.7 °F - 50.4 °F 27% 30.07 in 10.0 mi NNW 9.2 mph - N/A Thunderstorm Overcast
5:15 PM 81.7 °F 81.3 °F 55.8 °F 41% - 5.0 mi NW 6.9 mph - 0.04 in Rain Heavy Rain
5:35 PM 80.6 °F 81.9 °F 63.3 °F 55% 30.07 in 10.0 mi Calm Calm - 0.06 in Rain , Thunderstorm Light Thunderstorms and Rain
5:55 PM 78.6 °F - 58.5 °F 50% 30.08 in 10.0 mi ESE 13.8 mph 21.9 mph 0.06 in Thunderstorm Overcast
6:15 PM 78.3 °F - 58.3 °F 50% 30.09 in 10.0 mi SSW 10.4 mph 17.3 mph N/A   Mostly Cloudy
6:35 PM 78.8 °F - 58.8 °F 50% 30.09 in 10.0 mi SSW 8.1 mph - N/A Thunderstorm Mostly Cloudy
6:55 PM 78.3 °F - 58.1 °F 50% 30.09 in 10.0 mi South 11.5 mph - N/A Thunderstorm Scattered Clouds
7:15 PM 78.4 °F - 56.8 °F 47% 30.10 in 10.0 mi SSW 5.8 mph - N/A Thunderstorm Scattered Clouds
7:35 PM 80.4 °F - 52.7 °F 38% 30.12 in 10.0 mi NE 9.2 mph - N/A Thunderstorm Thunderstorm
7:55 PM 78.1 °F - 55.8 °F 46% 30.12 in 10.0 mi ENE 4.6 mph - N/A Thunderstorm Mostly Cloudy
8:15 PM 78.1 °F - 54.3 °F 44% 30.12 in 10.0 mi East 3.5 mph - N/A   Scattered Clouds
8:35 PM 76.5 °F - 58.3 °F 53% 30.11 in 10.0 mi Calm Calm - N/A Rain Light Rain
8:55 PM 79.3 °F - 52.9 °F 40% 30.10 in 10.0 mi Calm Calm - N/A Rain Light Rain
9:15 PM 77.9 °F - 57.2 °F 49% 30.10 in 10.0 mi South 3.5 mph - N/A Rain Light Rain
9:35 PM 76.6 °F - 61.2 °F 59% 30.09 in 10.0 mi South 4.6 mph - N/A   Scattered Clouds
9:55 PM 76.8 °F - 58.3 °F 53% 30.11 in 10.0 mi ENE 5.8 mph - N/A   Mostly Cloudy
10:15 PM 75.4 °F - 59.0 °F 57% 30.12 in 10.0 mi Calm Calm - N/A   Scattered Clouds
10:35 PM 75.2 °F - 59.2 °F 57% 30.12 in 10.0 mi NNW 4.6 mph - N/A   Scattered Clouds
10:55 PM 75.6 °F - 57.2 °F 53% 30.12 in 10.0 mi NW 8.1 mph - N/A   Scattered Clouds
11:15 PM 75.2 °F - 57.2 °F 53% 30.13 in 10.0 mi NW 5.8 mph - N/A   Clear
11:35 PM 75.2 °F - 57.9 °F 55% 30.13 in 10.0 mi WNW 8.1 mph - N/A   Clear
11:55 PM 73.4 °F - 59.0 °F 61% 30.14 in 10.0 mi WNW 8.1 mph - N/A   Clear